Location: La Silve
(44.2414°N, 5.8889°E)
Time: 08:46:16
(UTC+00:00)

ERS-2 - Pass Details

Date: 01 December 2020
Orbit: 492 x 498 km, 98.6° (Epoch: 25 January)

Event Time Altitude Azimuth Distance (km) Brightness Sun altitude
Exits shadow 16:35:45 - 43° (NE) 1,969 4.6 -6.7°
Reaches altitude 10° 16:36:37 10° 52° (NE) 1,709 4.2 -6.9°
Maximum altitude 16:39:03 17° 94° (E) 1,335 3.8 -7.3°
Drops below altitude 10° 16:41:29 10° 136° (SE) 1,699 4.6 -7.7°
Sets 16:44:08 0° 157° (SSE) 2,575 5.8 -8.1°
